Regional Weather Roundup
Issued by NWS

Home | Current Version | Previous Version | Text Only | Print | Product List | Glossary Off
Versions: 1 2 3 4 5 6 7 8 9 10 11 12 13 14 15 16 17 18 19 20 21 22 23 24 25 26 27 28 29 30 31 32 33 34 35 36 37 38 39 40 41 42 43 44 45 46 47 48 49 50

590
ASUS43 KOAX 230702
RWRNE

WEATHER ROUNDUP FOR NEBRASKA
NATIONAL WEATHER SERVICE OMAHA NE
200 AM CDT SAT JUL 23 2016

NOTES: SATELLITE DATA IS BEING USED TO AUGMENT CLOUD COVER ABOVE
       12000 FEET.
       "FAIR" INDICATES FEW OR NO CLOUDS BELOW 12,000 FEET WITH NO
       SIGNIFICANT WEATHER AND/OR OBSTRUCTIONS TO VISIBILITY.

  * THESE STATIONS DO NOT REPORT WEATHER SUCH AS RAIN...SNOW OR FOG.

NEZ001>004-019>022-054>056-230800-
NEBRASKA PANHANDLE

CITY           SKY/WX    TMP DP  RH WIND       PRES   REMARKS
SCOTTSBLUFF    CLOUDY    65  60  84 NE3       30.01S
ALLIANCE       CLOUDY    66  61  84 S9        29.98F
CHADRON        CLOUDY    71  61  70 NE3       29.96S
KIMBALL        CLOUDY    68  63  82 SW3       30.08F
SIDNEY         CLOUDY    68  63  84 CALM      30.06S
$$

NEZ057>060-069>072-079>082-230800-
SOUTHWEST NEBRASKA

CITY           SKY/WX    TMP DP  RH WIND       PRES   REMARKS
NORTH PLATTE   LGT RAIN  70  66  87 SE14G25   29.99F
IMPERIAL       TSTM      72  63  73 E15G33    29.96F
LEXINGTON      CLOUDY    73  67  82 NW15      30.06R
MCCOOK         TSTM      71  68  90 N14       30.01F FOG
OGALLALA       CLOUDY    73  65  76 SE13      29.97F
$$

NEZ005>010-023>029-035>040-094-230800-
NORTH CENTRAL NEBRASKA

CITY           SKY/WX    TMP DP  RH WIND       PRES   REMARKS
VALENTINE      CLOUDY    80  66  62 S14G25    29.90F
AINSWORTH      LGT RAIN  75  65  70 S7        29.91F
BROKEN BOW     LGT RAIN  71  67  87 W14       30.01F
O`NEILL        CLOUDY    82  77  86 S5        29.90F
ORD            LGT RAIN  76  70  82 SW30G39   29.99R
THEDFORD       CLOUDY    79  59  50 S20G25    29.91S
$$

NEZ041-046>049-061>064-073>077-083>087-230800-
SOUTH CENTRAL NEBRASKA

CITY           SKY/WX    TMP DP  RH WIND       PRES   REMARKS
GRAND ISLAND   CLOUDY    78  69  73 SE8       29.91F
AURORA         CLOUDY    75  71  85 SE7       29.90F
HASTINGS       CLOUDY    78  67  68 SE9       29.92F
HEBRON         CLOUDY    77  70  78 S6        29.90S
HOLDREGE       CLOUDY    78  68  70 NW13G21   29.98R
KEARNEY *      CLOUDY    77  72  83 W21G31    29.99R
YORK           CLOUDY    77  68  73 SE8       29.90F
$$

NEZ011>018-030>034-042>045-230800-
NORTHEAST NEBRASKA

CITY           SKY/WX    TMP DP  RH WIND       PRES   REMARKS
NORFOLK        CLOUDY    79  77  94 SE8       29.89F
ALBION         CLOUDY    76  73  87 SE3       29.90F
BLAIR          CLOUDY    82  76  81 S9        29.90F HX  90
FREMONT        CLOUDY    80  77  89 SE6       29.89F
TEKAMAH        MOCLDY    80  78  94 SE7       29.88F
WAYNE          CLOUDY    81  80  97 SE6       29.89F HX  90
$$

NEZ050>053-065>068-078-088>093-230800-
SOUTHEAST NEBRASKA

CITY           SKY/WX    TMP DP  RH WIND       PRES   REMARKS
LINCOLN        CLOUDY    82  73  74 S9        29.89F
OMAHA EPPLEY   CLOUDY    84  77  79 S10       29.89F HX  94
BEATRICE       CLOUDY    82  73  72 SE12G17   29.90S
FALLS CITY     CLOUDY    81  75  82 SE7       29.92F
NEBRASKA CITY  PTCLDY    80  75  85 S8        29.92S
PLATTSMOUTH    PTCLDY    81  76  85 SE9       29.91S
$$

NEZ044-045-051>053-067-230800-
OMAHA AREA

CITY           SKY/WX    TMP DP  RH WIND       PRES   REMARKS
OMAHA EPPLEY   CLOUDY    84  77  79 S10       29.89F HX  94
BLAIR          CLOUDY    82  76  81 S9        29.90F HX  90
FREMONT        CLOUDY    80  77  89 SE6       29.89F
MILLARD        CLOUDY    82  75  79 SE6       29.90S
OFFUTT AFB     PTCLDY    81  77  86 E7        29.90S
PLATTSMOUTH    PTCLDY    81  76  85 SE9       29.91S
WAHOO          FAIR      76  73  91 S6        29.89F
$$




USA.gov is the U.S. government's official web portal to all federal, state and local government web resources and services.